owner,sensor,date,latitude,longitude,vertical_datum,wind_speed,wind_to_direction,wind_speed_of_gust,qcFlag 
LUMCON,ioos:station:LUMCON:wisl1:1,2019-02-01T00:00:00Z,29.1144,-90.1840,1.0,5.9,37.0,14.2,'1111122,1111122,1111122' 
LUMCON,ioos:station:LUMCON:wisl1:1,2019-02-01T00:15:00Z,29.1144,-90.1840,1.0,6.6,44.0,14.0,'1111122,1111122,1111122' 
LUMCON,ioos:station:LUMCON:wisl1:1,2019-02-01T00:30:00Z,29.1144,-90.1840,1.0,5.2,35.0,14.0,'1111122,1111122,1111122' 
LUMCON,ioos:station:LUMCON:wisl1:1,2019-02-01T00:45:00Z,29.1144,-90.1840,1.0,7.7,41.0,13.9,'1111122,1111122,1111122' 
LUMCON,ioos:station:LUMCON:wisl1:1,2019-02-01T01:00:00Z,29.1144,-90.1840,1.0,6.1,39.0,14.0,'1111122,1111122,1111122' 
LUMCON,ioos:station:LUMCON:wisl1:1,2019-02-01T01:15:00Z,29.1144,-90.1840,1.0,5.9,41.0,13.9,'1111122,1111122,1111122' 
LUMCON,ioos:station:LUMCON:wisl1:1,2019-02-01T01:30:00Z,29.1144,-90.1840,1.0,6.1,32.0,14.0,'1111122,1111122,1111122' 
LUMCON,ioos:station:LUMCON:wisl1:1,2019-02-01T01:45:00Z,29.1144,-90.1840,1.0,5.7,46.0,13.9,'1111122,1111122,1111122' 
LUMCON,ioos:station:LUMCON:wisl1:1,2019-02-01T02:00:00Z,29.1144,-90.1840,1.0,8.2,49.0,14.1,'1111122,1111122,1111122' 
LUMCON,ioos:station:LUMCON:wisl1:1,2019-02-01T02:15:00Z,29.1144,-90.1840,1.0,7.4,45.0,14.2,'1111122,1111122,1111122' 
LUMCON,ioos:station:LUMCON:wisl1:1,2019-02-01T02:30:00Z,29.1144,-90.1840,1.0,8.2,45.0,14.3,'1111122,1111122,1111122' 
LUMCON,ioos:station:LUMCON:wisl1:1,2019-02-01T02:45:00Z,29.1144,-90.1840,1.0,8.5,50.0,14.5,'1111122,1111122,1111122' 
LUMCON,ioos:station:LUMCON:wisl1:1,2019-02-01T03:00:00Z,29.1144,-90.1840,1.0,8.0,50.0,14.5,'1111122,1111122,1111122' 
LUMCON,ioos:station:LUMCON:wisl1:1,2019-02-01T03:15:00Z,29.1144,-90.1840,1.0,6.1,49.0,14.5,'1111122,1111122,1111122' 
LUMCON,ioos:station:LUMCON:wisl1:1,2019-02-01T03:30:00Z,29.1144,-90.1840,1.0,8.2,50.0,14.6,'1111122,1111122,1111122' 
LUMCON,ioos:station:LUMCON:wisl1:1,2019-02-01T03:45:00Z,29.1144,-90.1840,1.0,8.9,61.0,14.8,'1111122,1111122,1111122' 
LUMCON,ioos:station:LUMCON:wisl1:1,2019-02-01T04:00:00Z,29.1144,-90.1840,1.0,6.6,56.0,14.8,'1111122,1111122,1111122' 
LUMCON,ioos:station:LUMCON:wisl1:1,2019-02-01T04:15:00Z,29.1144,-90.1840,1.0,7.7,56.0,14.8,'1111122,1111122,1111122' 
LUMCON,ioos:station:LUMCON:wisl1:1,2019-02-01T04:30:00Z,29.1144,-90.1840,1.0,8.0,51.0,14.7,'1111122,1111122,1111122' 
LUMCON,ioos:station:LUMCON:wisl1:1,2019-02-01T04:45:00Z,29.1144,-90.1840,1.0,7.4,48.0,14.7,'1111122,1111122,1111122' 
LUMCON,ioos:station:LUMCON:wisl1:1,2019-02-01T05:00:00Z,29.1144,-90.1840,1.0,7.5,51.0,14.7,'1111122,1111122,1111122' 
LUMCON,ioos:station:LUMCON:wisl1:1,2019-02-01T05:15:00Z,29.1144,-90.1840,1.0,7.5,60.0,14.4,'1111122,1111122,1111122' 
LUMCON,ioos:station:LUMCON:wisl1:1,2019-02-01T05:30:00Z,29.1144,-90.1840,1.0,6.4,47.0,14.2,'1111122,1111122,1111122' 
LUMCON,ioos:station:LUMCON:wisl1:1,2019-02-01T05:45:00Z,29.1144,-90.1840,1.0,8.0,50.0,14.3,'1111122,1111122,1111122' 
LUMCON,ioos:station:LUMCON:wisl1:1,2019-02-01T06:00:00Z,29.1144,-90.1840,1.0,6.6,41.0,14.3,'1111122,1111122,1111122' 
LUMCON,ioos:station:LUMCON:wisl1:1,2019-02-01T06:15:00Z,29.1144,-90.1840,1.0,5.6,42.0,14.3,'1111122,1111122,1111122' 
LUMCON,ioos:station:LUMCON:wisl1:1,2019-02-01T06:30:00Z,29.1144,-90.1840,1.0,5.8,38.0,13.9,'1111122,1111122,1111122' 
LUMCON,ioos:station:LUMCON:wisl1:1,2019-02-01T06:45:00Z,29.1144,-90.1840,1.0,6.1,42.0,13.8,'1111122,1111122,1111122' 
LUMCON,ioos:station:LUMCON:wisl1:1,2019-02-01T07:00:00Z,29.1144,-90.1840,1.0,6.7,50.0,14.1,'1111122,1111122,1111122' 
LUMCON,ioos:station:LUMCON:wisl1:1,2019-02-01T07:15:00Z,29.1144,-90.1840,1.0,6.2,60.0,14.3,'1111122,1111122,1111122' 
LUMCON,ioos:station:LUMCON:wisl1:1,2019-02-01T07:30:00Z,29.1144,-90.1840,1.0,6.5,58.0,14.4,'1111122,1111122,1111122' 
LUMCON,ioos:station:LUMCON:wisl1:1,2019-02-01T07:45:00Z,29.1144,-90.1840,1.0,7.5,66.0,14.4,'1111122,1111122,1111122' 
LUMCON,ioos:station:LUMCON:wisl1:1,2019-02-01T08:00:00Z,29.1144,-90.1840,1.0,6.7,61.0,14.3,'1111122,1111122,1111122' 
LUMCON,ioos:station:LUMCON:wisl1:1,2019-02-01T08:15:00Z,29.1144,-90.1840,1.0,7.9,56.0,14.2,'1111122,1111122,1111122' 
LUMCON,ioos:station:LUMCON:wisl1:1,2019-02-01T08:30:00Z,29.1144,-90.1840,1.0,7.3,65.0,14.2,'1111122,1111122,1111122' 
LUMCON,ioos:station:LUMCON:wisl1:1,2019-02-01T08:45:00Z,29.1144,-90.1840,1.0,8.2,65.0,14.2,'1111122,1111122,1111122' 
LUMCON,ioos:station:LUMCON:wisl1:1,2019-02-01T09:00:00Z,29.1144,-90.1840,1.0,6.0,51.0,14.3,'1111122,1111122,1111122' 
LUMCON,ioos:station:LUMCON:wisl1:1,2019-02-01T09:15:00Z,29.1144,-90.1840,1.0,7.4,68.0,14.3,'1111122,1111122,1111122' 
LUMCON,ioos:station:LUMCON:wisl1:1,2019-02-01T09:30:00Z,29.1144,-90.1840,1.0,6.4,60.0,14.4,'1111122,1111122,1111122' 
LUMCON,ioos:station:LUMCON:wisl1:1,2019-02-01T09:45:00Z,29.1144,-90.1840,1.0,4.3,64.0,14.4,'1111122,1111122,1111122' 
LUMCON,ioos:station:LUMCON:wisl1:1,2019-02-01T10:00:00Z,29.1144,-90.1840,1.0,5.2,64.0,14.4,'1111122,1111122,1111122' 
LUMCON,ioos:station:LUMCON:wisl1:1,2019-02-01T10:15:00Z,29.1144,-90.1840,1.0,5.6,63.0,14.3,'1111122,1111122,1111122' 
LUMCON,ioos:station:LUMCON:wisl1:1,2019-02-01T10:30:00Z,29.1144,-90.1840,1.0,5.0,60.0,14.3,'1111122,1111122,1111122' 
LUMCON,ioos:station:LUMCON:wisl1:1,2019-02-01T10:45:00Z,29.1144,-90.1840,1.0,4.2,57.0,14.2,'1111122,1111122,1111122' 
LUMCON,ioos:station:LUMCON:wisl1:1,2019-02-01T11:00:00Z,29.1144,-90.1840,1.0,4.7,65.0,14.3,'1111122,1111122,1111122' 
LUMCON,ioos:station:LUMCON:wisl1:1,2019-02-01T11:15:00Z,29.1144,-90.1840,1.0,4.9,64.0,14.4,'1111122,1111122,1111122' 
LUMCON,ioos:station:LUMCON:wisl1:1,2019-02-01T11:30:00Z,29.1144,-90.1840,1.0,5.4,69.0,14.4,'1111122,1111122,1111122' 
LUMCON,ioos:station:LUMCON:wisl1:1,2019-02-01T11:45:00Z,29.1144,-90.1840,1.0,6.7,83.0,14.6,'1111122,1111122,1111122' 
LUMCON,ioos:station:LUMCON:wisl1:1,2019-02-01T12:00:00Z,29.1144,-90.1840,1.0,10.2,91.0,14.8,'1111122,1111122,1111122' 
LUMCON,ioos:station:LUMCON:wisl1:1,2019-02-01T12:15:00Z,29.1144,-90.1840,1.0,7.7,93.0,15.1,'1111122,1111122,1111122' 
LUMCON,ioos:station:LUMCON:wisl1:1,2019-02-01T12:30:00Z,29.1144,-90.1840,1.0,4.0,68.0,15.3,'1111122,1111122,1111122' 
LUMCON,ioos:station:LUMCON:wisl1:1,2019-02-01T12:45:00Z,29.1144,-90.1840,1.0,6.3,76.0,15.3,'1111122,1111122,1111122' 
LUMCON,ioos:station:LUMCON:wisl1:1,2019-02-01T13:00:00Z,29.1144,-90.1840,1.0,10.7,88.0,15.3,'1111122,1111122,1111122' 
LUMCON,ioos:station:LUMCON:wisl1:1,2019-02-01T13:15:00Z,29.1144,-90.1840,1.0,6.7,76.0,15.2,'1111122,1111122,1111122' 
LUMCON,ioos:station:LUMCON:wisl1:1,2019-02-01T13:30:00Z,29.1144,-90.1840,1.0,7.8,76.0,15.2,'1111122,1111122,1111122' 
LUMCON,ioos:station:LUMCON:wisl1:1,2019-02-01T13:45:00Z,29.1144,-90.1840,1.0,9.5,78.0,15.3,'1111122,1111122,1111122' 
LUMCON,ioos:station:LUMCON:wisl1:1,2019-02-01T14:00:00Z,29.1144,-90.1840,1.0,7.7,62.0,15.1,'1111122,1111122,1111122' 
LUMCON,ioos:station:LUMCON:wisl1:1,2019-02-01T14:15:00Z,29.1144,-90.1840,1.0,7.7,62.0,15.1,'1111122,1111122,1111122' 
LUMCON,ioos:station:LUMCON:wisl1:1,2019-02-01T14:30:00Z,29.1144,-90.1840,1.0,10.1,73.0,15.0,'1111122,1111122,1111122' 
LUMCON,ioos:station:LUMCON:wisl1:1,2019-02-01T14:45:00Z,29.1144,-90.1840,1.0,7.2,73.0,15.1,'1111122,1111122,1111122' 
LUMCON,ioos:station:LUMCON:wisl1:1,2019-02-01T15:00:00Z,29.1144,-90.1840,1.0,8.1,74.0,15.2,'1111122,1111122,1111122' 
LUMCON,ioos:station:LUMCON:wisl1:1,2019-02-01T15:15:00Z,29.1144,-90.1840,1.0,7.5,69.0,15.2,'1111122,1111122,1111122' 
LUMCON,ioos:station:LUMCON:wisl1:1,2019-02-01T15:30:00Z,29.1144,-90.1840,1.0,6.9,55.0,15.2,'1111122,1111122,1111122' 
LUMCON,ioos:station:LUMCON:wisl1:1,2019-02-01T15:45:00Z,29.1144,-90.1840,1.0,8.1,54.0,15.5,'1111122,1111122,1111122' 
LUMCON,ioos:station:LUMCON:wisl1:1,2019-02-01T16:00:00Z,29.1144,-90.1840,1.0,6.1,42.0,15.5,'1111122,1111122,1111122' 
LUMCON,ioos:station:LUMCON:wisl1:1,2019-02-01T16:15:00Z,29.1144,-90.1840,1.0,5.8,36.0,15.4,'1111122,1111122,1111122' 
LUMCON,ioos:station:LUMCON:wisl1:1,2019-02-01T16:30:00Z,29.1144,-90.1840,1.0,6.3,38.0,15.5,'1111122,1111122,1111122' 
LUMCON,ioos:station:LUMCON:wisl1:1,2019-02-01T16:45:00Z,29.1144,-90.1840,1.0,6.0,40.0,15.7,'1111122,1111122,1111122' 
LUMCON,ioos:station:LUMCON:wisl1:1,2019-02-01T17:00:00Z,29.1144,-90.1840,1.0,5.2,27.0,16.0,'1111122,1111122,1111122' 
LUMCON,ioos:station:LUMCON:wisl1:1,2019-02-01T17:15:00Z,29.1144,-90.1840,1.0,8.9,32.0,16.6,'1111122,1111122,1111122' 
LUMCON,ioos:station:LUMCON:wisl1:1,2019-02-01T17:30:00Z,29.1144,-90.1840,1.0,7.2,31.0,16.7,'1111122,1111122,1111122' 
LUMCON,ioos:station:LUMCON:wisl1:1,2019-02-01T17:45:00Z,29.1144,-90.1840,1.0,6.5,19.0,15.3,'1111122,1111122,1111122' 
LUMCON,ioos:station:LUMCON:wisl1:1,2019-02-01T18:00:00Z,29.1144,-90.1840,1.0,5.4,0.0,14.9,'1111122,1114422,1111122' 
LUMCON,ioos:station:LUMCON:wisl1:1,2019-02-01T18:15:00Z,29.1144,-90.1840,1.0,6.3,19.0,15.4,'1111122,1111122,1111122' 
LUMCON,ioos:station:LUMCON:wisl1:1,2019-02-01T18:30:00Z,29.1144,-90.1840,1.0,5.4,18.0,15.7,'1111122,1111122,1111122' 
LUMCON,ioos:station:LUMCON:wisl1:1,2019-02-01T18:45:00Z,29.1144,-90.1840,1.0,3.8,6.0,15.8,'1111122,1111122,1111122' 
LUMCON,ioos:station:LUMCON:wisl1:1,2019-02-01T19:00:00Z,29.1144,-90.1840,1.0,6.4,354.0,15.1,'1111122,1111122,1111122' 
LUMCON,ioos:station:LUMCON:wisl1:1,2019-02-01T19:15:00Z,29.1144,-90.1840,1.0,4.6,353.0,15.6,'1111122,1111122,1111122' 
LUMCON,ioos:station:LUMCON:wisl1:1,2019-02-01T19:30:00Z,29.1144,-90.1840,1.0,5.7,2.0,15.7,'1111122,1111122,1111122' 
LUMCON,ioos:station:LUMCON:wisl1:1,2019-02-01T19:45:00Z,29.1144,-90.1840,1.0,5.6,12.0,16.3,'1111122,1111122,1111122' 
LUMCON,ioos:station:LUMCON:wisl1:1,2019-02-01T20:00:00Z,29.1144,-90.1840,1.0,6.1,19.0,16.7,'1111122,1111122,1111122' 
LUMCON,ioos:station:LUMCON:wisl1:1,2019-02-01T20:15:00Z,29.1144,-90.1840,1.0,6.3,28.0,17.3,'1111122,1111122,1111122' 
LUMCON,ioos:station:LUMCON:wisl1:1,2019-02-01T20:30:00Z,29.1144,-90.1840,1.0,7.4,37.0,17.6,'1111122,1111122,1111122' 
LUMCON,ioos:station:LUMCON:wisl1:1,2019-02-01T20:45:00Z,29.1144,-90.1840,1.0,8.2,35.0,17.8,'1111122,1111122,1111122' 
LUMCON,ioos:station:LUMCON:wisl1:1,2019-02-01T21:00:00Z,29.1144,-90.1840,1.0,6.0,19.0,17.7,'1111122,1111122,1111122' 
LUMCON,ioos:station:LUMCON:wisl1:1,2019-02-01T21:15:00Z,29.1144,-90.1840,1.0,8.7,20.0,17.6,'1111122,1111122,1111122' 
LUMCON,ioos:station:LUMCON:wisl1:1,2019-02-01T21:30:00Z,29.1144,-90.1840,1.0,5.6,27.0,17.5,'1111122,1111122,1111122' 
LUMCON,ioos:station:LUMCON:wisl1:1,2019-02-01T21:45:00Z,29.1144,-90.1840,1.0,5.0,15.0,17.4,'1111122,1111122,1111122' 
LUMCON,ioos:station:LUMCON:wisl1:1,2019-02-01T22:00:00Z,29.1144,-90.1840,1.0,6.2,12.0,17.0,'1111122,1111122,1111122' 
LUMCON,ioos:station:LUMCON:wisl1:1,2019-02-01T22:15:00Z,29.1144,-90.1840,1.0,5.5,8.0,16.6,'1111122,1111122,1111122' 
LUMCON,ioos:station:LUMCON:wisl1:1,2019-02-01T22:30:00Z,29.1144,-90.1840,1.0,10.0,27.0,16.2,'1111122,1111122,1111122' 
LUMCON,ioos:station:LUMCON:wisl1:1,2019-02-01T22:45:00Z,29.1144,-90.1840,1.0,7.9,12.0,15.6,'1111122,1111122,1111122' 
LUMCON,ioos:station:LUMCON:wisl1:1,2019-02-01T23:00:00Z,29.1144,-90.1840,1.0,6.7,8.0,15.2,'1111122,1111122,1111122' 
LUMCON,ioos:station:LUMCON:wisl1:1,2019-02-01T23:15:00Z,29.1144,-90.1840,1.0,7.2,13.0,14.6,'1111122,1111122,1111122' 
LUMCON,ioos:station:LUMCON:wisl1:1,2019-02-01T23:30:00Z,29.1144,-90.1840,1.0,6.0,4.0,14.5,'1111122,1111122,1111122' 
LUMCON,ioos:station:LUMCON:wisl1:1,2019-02-01T23:45:00Z,29.1144,-90.1840,1.0,9.5,19.0,14.3,'1111122,1111122,1111122' 
LUMCON,ioos:station:LUMCON:wisl1:1,2019-02-02T00:00:00Z,29.1144,-90.1840,1.0,7.7,21.0,14.2,'1111122,1111122,1111122' 
LUMCON,ioos:station:LUMCON:wisl1:1,2019-02-02T00:15:00Z,29.1144,-90.1840,1.0,8.0,18.0,14.3,'1111122,1111122,1111122' 
LUMCON,ioos:station:LUMCON:wisl1:1,2019-02-02T00:30:00Z,29.1144,-90.1840,1.0,5.7,26.0,14.6,'1111122,1111122,1111122' 
LUMCON,ioos:station:LUMCON:wisl1:1,2019-02-02T00:45:00Z,29.1144,-90.1840,1.0,8.3,25.0,14.7,'1111122,1111122,1111122' 
LUMCON,ioos:station:LUMCON:wisl1:1,2019-02-02T01:00:00Z,29.1144,-90.1840,1.0,7.8,26.0,14.7,'1111122,1111122,1111122' 
LUMCON,ioos:station:LUMCON:wisl1:1,2019-02-02T01:15:00Z,29.1144,-90.1840,1.0,8.0,26.0,14.7,'1111122,1111122,1111122' 
LUMCON,ioos:station:LUMCON:wisl1:1,2019-02-02T01:30:00Z,29.1144,-90.1840,1.0,8.3,25.0,14.7,'1111122,1111122,1111122' 
LUMCON,ioos:station:LUMCON:wisl1:1,2019-02-02T01:45:00Z,29.1144,-90.1840,1.0,7.5,17.0,14.7,'1111122,1111122,1111122' 
LUMCON,ioos:station:LUMCON:wisl1:1,2019-02-02T02:00:00Z,29.1144,-90.1840,1.0,6.6,35.0,14.9,'1111122,1111122,1111122' 
LUMCON,ioos:station:LUMCON:wisl1:1,2019-02-02T02:15:00Z,29.1144,-90.1840,1.0,8.8,32.0,14.7,'1111122,1111122,1111122' 
LUMCON,ioos:station:LUMCON:wisl1:1,2019-02-02T02:30:00Z,29.1144,-90.1840,1.0,5.6,19.0,14.6,'1111122,1111122,1111122' 
LUMCON,ioos:station:LUMCON:wisl1:1,2019-02-02T02:45:00Z,29.1144,-90.1840,1.0,6.7,20.0,14.2,'1111122,1111122,1111122' 
LUMCON,ioos:station:LUMCON:wisl1:1,2019-02-02T03:00:00Z,29.1144,-90.1840,1.0,5.8,26.0,14.3,'1111122,1111122,1111122' 
LUMCON,ioos:station:LUMCON:wisl1:1,2019-02-02T03:15:00Z,29.1144,-90.1840,1.0,9.3,35.0,14.2,'1111122,1111122,1111122' 
LUMCON,ioos:station:LUMCON:wisl1:1,2019-02-02T03:30:00Z,29.1144,-90.1840,1.0,7.3,32.0,14.1,'1111122,1111122,1111122' 
LUMCON,ioos:station:LUMCON:wisl1:1,2019-02-02T03:45:00Z,29.1144,-90.1840,1.0,7.7,38.0,14.4,'1111122,1111122,1111122' 
LUMCON,ioos:station:LUMCON:wisl1:1,2019-02-02T04:00:00Z,29.1144,-90.1840,1.0,6.3,36.0,14.4,'1111122,1111122,1111122' 
LUMCON,ioos:station:LUMCON:wisl1:1,2019-02-02T04:15:00Z,29.1144,-90.1840,1.0,5.8,36.0,14.3,'1111122,1111122,1111122' 
LUMCON,ioos:station:LUMCON:wisl1:1,2019-02-02T04:30:00Z,29.1144,-90.1840,1.0,5.7,30.0,14.3,'1111122,1111122,1111122' 
LUMCON,ioos:station:LUMCON:wisl1:1,2019-02-02T04:45:00Z,29.1144,-90.1840,1.0,5.7,26.0,14.2,'1111122,1111122,1111122' 
LUMCON,ioos:station:LUMCON:wisl1:1,2019-02-02T05:00:00Z,29.1144,-90.1840,1.0,6.5,29.0,14.1,'1111122,1111122,1111122' 
LUMCON,ioos:station:LUMCON:wisl1:1,2019-02-02T05:15:00Z,29.1144,-90.1840,1.0,6.0,10.0,14.0,'1111122,1111122,1111122' 
LUMCON,ioos:station:LUMCON:wisl1:1,2019-02-02T05:30:00Z,29.1144,-90.1840,1.0,4.3,9.0,13.9,'1111122,1111122,1111122' 
LUMCON,ioos:station:LUMCON:wisl1:1,2019-02-02T05:45:00Z,29.1144,-90.1840,1.0,4.8,21.0,13.6,'1111122,1111122,1111122' 
LUMCON,ioos:station:LUMCON:wisl1:1,2019-02-02T06:00:00Z,29.1144,-90.1840,1.0,5.8,37.0,13.5,'1111122,1111122,1111122' 
LUMCON,ioos:station:LUMCON:wisl1:1,2019-02-02T06:15:00Z,29.1144,-90.1840,1.0,5.3,27.0,13.5,'1111122,1111122,1111122' 
LUMCON,ioos:station:LUMCON:wisl1:1,2019-02-02T06:30:00Z,29.1144,-90.1840,1.0,5.6,18.0,13.5,'1111122,1111122,1111122' 
LUMCON,ioos:station:LUMCON:wisl1:1,2019-02-02T06:45:00Z,29.1144,-90.1840,1.0,5.6,23.0,13.5,'1111122,1111122,1111122' 
LUMCON,ioos:station:LUMCON:wisl1:1,2019-02-02T07:00:00Z,29.1144,-90.1840,1.0,4.9,30.0,13.5,'1111122,1111122,1111122' 
LUMCON,ioos:station:LUMCON:wisl1:1,2019-02-02T07:15:00Z,29.1144,-90.1840,1.0,5.2,25.0,13.4,'1111122,1111122,1111122' 
LUMCON,ioos:station:LUMCON:wisl1:1,2019-02-02T07:30:00Z,29.1144,-90.1840,1.0,5.5,23.0,13.3,'1111122,1111122,1111122' 
LUMCON,ioos:station:LUMCON:wisl1:1,2019-02-02T07:45:00Z,29.1144,-90.1840,1.0,5.8,22.0,13.2,'1111122,1111122,1111122' 
LUMCON,ioos:station:LUMCON:wisl1:1,2019-02-02T08:00:00Z,29.1144,-90.1840,1.0,6.0,26.0,13.2,'1111122,1111122,1111122' 
LUMCON,ioos:station:LUMCON:wisl1:1,2019-02-02T08:15:00Z,29.1144,-90.1840,1.0,4.0,26.0,13.2,'1111122,1111122,1111122' 
LUMCON,ioos:station:LUMCON:wisl1:1,2019-02-02T08:30:00Z,29.1144,-90.1840,1.0,4.9,20.0,13.3,'1111122,1111122,1111122' 
LUMCON,ioos:station:LUMCON:wisl1:1,2019-02-02T08:45:00Z,29.1144,-90.1840,1.0,4.5,20.0,13.4,'1111122,1111122,1111122' 
LUMCON,ioos:station:LUMCON:wisl1:1,2019-02-02T09:00:00Z,29.1144,-90.1840,1.0,5.0,25.0,13.5,'1111122,1111122,1111122' 
LUMCON,ioos:station:LUMCON:wisl1:1,2019-02-02T09:15:00Z,29.1144,-90.1840,1.0,5.2,13.0,13.4,'1111122,1111122,1111122' 
LUMCON,ioos:station:LUMCON:wisl1:1,2019-02-02T09:30:00Z,29.1144,-90.1840,1.0,4.3,10.0,13.4,'1111122,1111122,1111122' 
LUMCON,ioos:station:LUMCON:wisl1:1,2019-02-02T09:45:00Z,29.1144,-90.1840,1.0,4.7,14.0,13.5,'1111122,1111122,1111122' 
LUMCON,ioos:station:LUMCON:wisl1:1,2019-02-02T10:00:00Z,29.1144,-90.1840,1.0,4.5,20.0,13.5,'1111122,1111122,1111122' 
LUMCON,ioos:station:LUMCON:wisl1:1,2019-02-02T10:15:00Z,29.1144,-90.1840,1.0,6.0,17.0,13.6,'1111122,1111122,1111122' 
LUMCON,ioos:station:LUMCON:wisl1:1,2019-02-02T10:30:00Z,29.1144,-90.1840,1.0,4.1,8.0,13.7,'1111122,1111122,1111122' 
LUMCON,ioos:station:LUMCON:wisl1:1,2019-02-02T10:45:00Z,29.1144,-90.1840,1.0,4.5,0.0,13.4,'1111122,1114422,1111122' 
LUMCON,ioos:station:LUMCON:wisl1:1,2019-02-02T11:00:00Z,29.1144,-90.1840,1.0,4.3,5.0,13.3,'1111122,1111122,1111122' 
LUMCON,ioos:station:LUMCON:wisl1:1,2019-02-02T11:15:00Z,29.1144,-90.1840,1.0,4.5,7.0,13.3,'1111122,1111122,1111122' 
LUMCON,ioos:station:LUMCON:wisl1:1,2019-02-02T11:30:00Z,29.1144,-90.1840,1.0,4.2,5.0,13.4,'1111122,1111122,1111122' 
LUMCON,ioos:station:LUMCON:wisl1:1,2019-02-02T11:45:00Z,29.1144,-90.1840,1.0,5.6,9.0,13.5,'1111122,1111122,1111122' 
LUMCON,ioos:station:LUMCON:wisl1:1,2019-02-02T12:00:00Z,29.1144,-90.1840,1.0,4.7,10.0,13.5,'1111122,1111122,1111122' 
LUMCON,ioos:station:LUMCON:wisl1:1,2019-02-02T12:15:00Z,29.1144,-90.1840,1.0,4.7,3.0,13.5,'1111122,1111122,1111122' 
LUMCON,ioos:station:LUMCON:wisl1:1,2019-02-02T12:30:00Z,29.1144,-90.1840,1.0,4.3,6.0,13.4,'1111122,1111122,1111122' 
LUMCON,ioos:station:LUMCON:wisl1:1,2019-02-02T12:45:00Z,29.1144,-90.1840,1.0,4.9,15.0,13.4,'1111122,1111122,1111122' 
LUMCON,ioos:station:LUMCON:wisl1:1,2019-02-02T13:00:00Z,29.1144,-90.1840,1.0,4.2,15.0,13.4,'1111122,1111122,1111122' 
LUMCON,ioos:station:LUMCON:wisl1:1,2019-02-02T13:15:00Z,29.1144,-90.1840,1.0,4.4,13.0,13.5,'1111122,1111122,1111122' 
LUMCON,ioos:station:LUMCON:wisl1:1,2019-02-02T13:30:00Z,29.1144,-90.1840,1.0,4.8,4.0,13.6,'1111122,1111122,1111122' 
LUMCON,ioos:station:LUMCON:wisl1:1,2019-02-02T13:45:00Z,29.1144,-90.1840,1.0,6.0,8.0,13.6,'1111122,1111122,1111122' 
LUMCON,ioos:station:LUMCON:wisl1:1,2019-02-02T14:00:00Z,29.1144,-90.1840,1.0,4.5,13.0,13.7,'1111122,1111122,1111122' 
LUMCON,ioos:station:LUMCON:wisl1:1,2019-02-02T14:15:00Z,29.1144,-90.1840,1.0,5.9,3.0,13.6,'1111122,1111122,1111122' 
LUMCON,ioos:station:LUMCON:wisl1:1,2019-02-02T14:30:00Z,29.1144,-90.1840,1.0,6.5,21.0,13.6,'1111122,1111122,1111122' 
LUMCON,ioos:station:LUMCON:wisl1:1,2019-02-02T14:45:00Z,29.1144,-90.1840,1.0,6.1,16.0,13.5,'1111122,1111122,1111122' 
LUMCON,ioos:station:LUMCON:wisl1:1,2019-02-02T15:00:00Z,29.1144,-90.1840,1.0,5.8,13.0,13.4,'1111122,1111122,1111122' 
LUMCON,ioos:station:LUMCON:wisl1:1,2019-02-02T15:15:00Z,29.1144,-90.1840,1.0,5.3,20.0,13.5,'1111122,1111122,1111122' 
LUMCON,ioos:station:LUMCON:wisl1:1,2019-02-02T15:30:00Z,29.1144,-90.1840,1.0,4.0,1.0,13.5,'1111122,1111122,1111122' 
LUMCON,ioos:station:LUMCON:wisl1:1,2019-02-02T15:45:00Z,29.1144,-90.1840,1.0,4.8,357.0,13.7,'1111122,1111122,1111122' 
LUMCON,ioos:station:LUMCON:wisl1:1,2019-02-02T16:00:00Z,29.1144,-90.1840,1.0,5.7,12.0,13.7,'1111122,1111122,1111122' 
LUMCON,ioos:station:LUMCON:wisl1:1,2019-02-02T16:15:00Z,29.1144,-90.1840,1.0,5.1,0.0,13.7,'1111122,1114422,1111122' 
LUMCON,ioos:station:LUMCON:wisl1:1,2019-02-02T16:30:00Z,29.1144,-90.1840,1.0,6.2,22.0,14.0,'1111122,1111122,1111122' 
LUMCON,ioos:station:LUMCON:wisl1:1,2019-02-02T16:45:00Z,29.1144,-90.1840,1.0,6.9,14.0,14.1,'1111122,1111122,1111122' 
LUMCON,ioos:station:LUMCON:wisl1:1,2019-02-02T17:00:00Z,29.1144,-90.1840,1.0,4.1,3.0,14.2,'1111122,1111122,1111122' 
LUMCON,ioos:station:LUMCON:wisl1:1,2019-02-02T17:15:00Z,29.1144,-90.1840,1.0,4.7,7.0,14.3,'1111122,1111122,1111122' 
LUMCON,ioos:station:LUMCON:wisl1:1,2019-02-02T17:30:00Z,29.1144,-90.1840,1.0,6.2,354.0,13.8,'1111122,1111122,1111122' 
LUMCON,ioos:station:LUMCON:wisl1:1,2019-02-02T17:45:00Z,29.1144,-90.1840,1.0,6.7,28.0,13.7,'1111122,1111122,1111122' 
LUMCON,ioos:station:LUMCON:wisl1:1,2019-02-02T18:00:00Z,29.1144,-90.1840,1.0,4.5,3.0,13.7,'1111122,1111122,1111122' 
LUMCON,ioos:station:LUMCON:wisl1:1,2019-02-02T18:15:00Z,29.1144,-90.1840,1.0,4.6,22.0,13.6,'1111122,1111122,1111122' 
LUMCON,ioos:station:LUMCON:wisl1:1,2019-02-02T18:30:00Z,29.1144,-90.1840,1.0,4.4,19.0,13.5,'1111122,1111122,1111122' 
LUMCON,ioos:station:LUMCON:wisl1:1,2019-02-02T18:45:00Z,29.1144,-90.1840,1.0,4.3,19.0,13.8,'1111122,1111122,1111122' 
LUMCON,ioos:station:LUMCON:wisl1:1,2019-02-02T19:00:00Z,29.1144,-90.1840,1.0,6.2,356.0,13.8,'1111122,1111122,1111122' 
LUMCON,ioos:station:LUMCON:wisl1:1,2019-02-02T19:15:00Z,29.1144,-90.1840,1.0,5.2,355.0,13.7,'1111122,1111122,1111122' 
LUMCON,ioos:station:LUMCON:wisl1:1,2019-02-02T19:30:00Z,29.1144,-90.1840,1.0,5.5,9.0,13.7,'1111122,1111122,1111122' 
LUMCON,ioos:station:LUMCON:wisl1:1,2019-02-02T19:45:00Z,29.1144,-90.1840,1.0,5.7,18.0,14.1,'1111122,1111122,1111122' 
LUMCON,ioos:station:LUMCON:wisl1:1,2019-02-02T20:00:00Z,29.1144,-90.1840,1.0,5.2,1.0,14.4,'1111122,1111122,1111122' 
LUMCON,ioos:station:LUMCON:wisl1:1,2019-02-02T20:15:00Z,29.1144,-90.1840,1.0,5.3,15.0,14.5,'1111122,1111122,1111122' 
LUMCON,ioos:station:LUMCON:wisl1:1,2019-02-02T20:30:00Z,29.1144,-90.1840,1.0,5.7,20.0,14.8,'1111122,1111122,1111122' 
LUMCON,ioos:station:LUMCON:wisl1:1,2019-02-02T20:45:00Z,29.1144,-90.1840,1.0,4.0,10.0,15.1,'1111122,1111122,1111122' 
LUMCON,ioos:station:LUMCON:wisl1:1,2019-02-02T21:00:00Z,29.1144,-90.1840,1.0,4.1,11.0,15.2,'1111122,1111122,1111122' 
LUMCON,ioos:station:LUMCON:wisl1:1,2019-02-02T21:15:00Z,29.1144,-90.1840,1.0,5.2,15.0,15.3,'1111122,1111122,1111122' 
LUMCON,ioos:station:LUMCON:wisl1:1,2019-02-02T21:30:00Z,29.1144,-90.1840,1.0,4.9,6.0,15.2,'1111122,1111122,1111122' 
LUMCON,ioos:station:LUMCON:wisl1:1,2019-02-02T21:45:00Z,29.1144,-90.1840,1.0,6.8,23.0,15.2,'1111122,1111122,1111122' 
LUMCON,ioos:station:LUMCON:wisl1:1,2019-02-02T22:00:00Z,29.1144,-90.1840,1.0,5.7,19.0,15.3,'1111122,1111122,1111122' 
LUMCON,ioos:station:LUMCON:wisl1:1,2019-02-02T22:15:00Z,29.1144,-90.1840,1.0,5.8,17.0,15.5,'1111122,1111122,1111122' 
LUMCON,ioos:station:LUMCON:wisl1:1,2019-02-02T22:30:00Z,29.1144,-90.1840,1.0,5.9,14.0,15.8,'1111122,1111122,1111122' 
LUMCON,ioos:station:LUMCON:wisl1:1,2019-02-02T22:45:00Z,29.1144,-90.1840,1.0,4.1,18.0,15.7,'1111122,1111122,1111122' 
LUMCON,ioos:station:LUMCON:wisl1:1,2019-02-02T23:00:00Z,29.1144,-90.1840,1.0,4.9,8.0,15.3,'1111122,1111122,1111122' 
LUMCON,ioos:station:LUMCON:wisl1:1,2019-02-02T23:15:00Z,29.1144,-90.1840,1.0,6.3,20.0,15.0,'1111122,1111122,1111122' 
LUMCON,ioos:station:LUMCON:wisl1:1,2019-02-02T23:30:00Z,29.1144,-90.1840,1.0,5.2,16.0,14.8,'1111122,1111122,1111122' 
LUMCON,ioos:station:LUMCON:wisl1:1,2019-02-02T23:45:00Z,29.1144,-90.1840,1.0,4.5,27.0,14.7,'1111122,1111122,1111122' 
LUMCON,ioos:station:LUMCON:wisl1:1,2019-02-03T00:00:00Z,29.1144,-90.1840,1.0,6.2,39.0,14.6,'1111122,1111122,1111122' 
LUMCON,ioos:station:LUMCON:wisl1:1,2019-02-03T00:15:00Z,29.1144,-90.1840,1.0,5.0,38.0,14.1,'1111122,1111122,1111122' 
LUMCON,ioos:station:LUMCON:wisl1:1,2019-02-03T00:30:00Z,29.1144,-90.1840,1.0,4.7,32.0,14.0,'1111122,1111122,1111122' 
LUMCON,ioos:station:LUMCON:wisl1:1,2019-02-03T00:45:00Z,29.1144,-90.1840,1.0,4.3,29.0,13.9,'1111122,1111122,1111122' 
LUMCON,ioos:station:LUMCON:wisl1:1,2019-02-03T01:00:00Z,29.1144,-90.1840,1.0,4.4,30.0,13.9,'1111122,1111122,1111122' 
LUMCON,ioos:station:LUMCON:wisl1:1,2019-02-03T01:15:00Z,29.1144,-90.1840,1.0,4.4,25.0,13.9,'1111122,1111122,1111122' 
LUMCON,ioos:station:LUMCON:wisl1:1,2019-02-03T01:30:00Z,29.1144,-90.1840,1.0,4.6,31.0,13.9,'1111122,1111122,1111122' 
LUMCON,ioos:station:LUMCON:wisl1:1,2019-02-03T01:45:00Z,29.1144,-90.1840,1.0,4.4,40.0,13.9,'1111122,1111122,1111122' 
LUMCON,ioos:station:LUMCON:wisl1:1,2019-02-03T02:00:00Z,29.1144,-90.1840,1.0,4.8,39.0,13.9,'1111122,1111122,1111122' 
LUMCON,ioos:station:LUMCON:wisl1:1,2019-02-03T02:15:00Z,29.1144,-90.1840,1.0,3.7,39.0,13.9,'1111122,1111122,1111122' 